DW7027 Weather Reports


Display with metric or nautical units.
time (UTC)temp
F
wind
direction
speed
MPH
gust
MPH
rain 1hr
in
rain 24hr
in
rain mn
in
humidity
%
barometer
mb
20191113062653 41 316 3.0 6.0 0.00 0.29 0.00 100 999.0
20191113061653 41 302 4.0 6.0 0.00 0.29 0.00 100 999.0
20191113060653 40 315 1.0 6.0 0.00 0.29 0.00 100 999.0
20191113055653 40 322 2.0 5.0 0.00 0.29 0.00 100 999.0
20191113054653 40 310 3.0 7.0 0.00 0.29 0.00 100 999.0
20191113053653 40 288 3.0 6.0 0.00 0.29 0.00 100 998.0
20191113052654 40 284 4.0 6.0 0.00 0.29 0.00 100 999.0
20191113051654 40 311 3.0 7.0 0.00 0.29 0.00 100 999.0
20191113050653 40 308 3.0 6.0 0.00 0.29 0.00 100 999.0
20191113045653 40 271 3.0 6.0 0.00 0.29 0.00 100 999.0
20191113044654 40 291 4.0 6.0 0.00 0.29 0.00 100 999.0
20191113043654 40 292 2.0 6.0 0.00 0.29 0.00 100 999.0
20191113042653 40 248 2.0 6.0 0.00 0.29 0.00 100 999.0
20191113041653 40 296 2.0 6.0 0.00 0.29 0.00 100 999.0
20191113040654 40 292 3.0 5.0 0.00 0.29 0.00 100 999.0
20191113035654 40 315 2.0 3.0 0.00 0.29 0.00 100 999.0
20191113034653 40 315 1.0 2.0 0.00 0.29 0.00 100 999.0
20191113033653 40 315 2.0 5.0 0.00 0.29 0.00 100 1000.0
20191113032654 40 315 1.0 2.0 0.00 0.29 0.00 100 1000.0
20191113031653 40 315 0.0 3.0 0.00 0.29 0.00 100 1000.0
20191113030654 40 308 2.0 3.0 0.00 0.29 0.00 100 1000.0
20191113025654 40 315 2.0 3.0 0.00 0.29 0.00 100 1000.0
20191113024654 41 277 3.0 5.0 0.00 0.29 0.00 100 1000.0
20191113023653 41 292 1.0 5.0 0.00 0.29 0.00 100 1000.0
20191113022653 41 297 2.0 5.0 0.00 0.29 0.00 100 1001.0
20191113021654 41 297 3.0 5.0 0.00 0.29 0.00 100 1001.0
20191113020654 41 315 3.0 5.0 0.00 0.29 0.00 100 1001.0
20191113015654 41 291 4.0 7.0 0.00 0.29 0.00 100 1001.0
20191113014654 41 284 3.0 5.0 0.00 0.29 0.00 100 1001.0
20191113013654 41 259 2.0 5.0 0.00 0.29 0.00 100 1001.0
20191113012654 41 292 2.0 3.0 0.00 0.29 0.00 100 1001.0
20191113011654 41 315 1.0 2.0 0.00 0.29 0.00 100 1001.0
20191113010654 41 315 1.0 2.0 0.00 0.29 0.00 100 1001.0
20191113005654 41 315 0.0 2.0 0.00 0.29 0.00 100 1001.0
20191113004654 41 270 1.0 3.0 0.00 0.29 0.00 100 1001.0
20191113003654 41 292 2.0 5.0 0.00 0.29 0.00 100 1001.0
20191113002653 41 270 3.0 6.0 0.00 0.29 0.00 100 1001.0
20191113001654 41 269 3.0 6.0 0.00 0.29 0.00 100 1001.0
20191113000654 41 292 3.0 6.0 0.00 0.29 0.00 100 1001.0
20191112235654 41 267 3.0 5.0 0.00 0.29 0.00 100 1001.0
20191112234654 41 292 3.0 5.0 0.00 0.29 0.00 100 1001.0
20191112233654 41 285 2.0 3.0 0.00 0.29 0.00 100 1002.0
20191112232654 41 315 0.0 3.0 0.00 0.29 0.00 100 1001.0
20191112231654 41 292 3.0 6.0 0.00 0.29 0.00 100 1001.0
20191112230656 41 294 3.0 5.0 0.00 0.29 0.00 100 1001.0
20191112225654 42 315 2.0 5.0 0.00 0.29 0.29 100 1002.0
20191112224655 42 292 2.0 6.0 0.00 0.29 0.29 100 1002.0
20191112223654 42 290 3.0 6.0 0.00 0.29 0.29 100 1002.0
20191112222655 42 270 1.0 6.0 0.00 0.29 0.29 100 1002.0
20191112221654 42 281 4.0 7.0 0.00 0.29 0.29 100 1002.0
20191112220655 42 292 3.0 6.0 0.00 0.29 0.29 100 1002.0
20191112215654 42 270 2.0 2.0 0.00 0.29 0.29 100 1002.0
20191112214654 42 254 1.0 5.0 0.00 0.29 0.29 100 1002.0
20191112213654 42 274 2.0 7.0 0.00 0.29 0.29 100 1001.0
20191112212654 42 292 4.0 6.0 0.00 0.29 0.29 100 1002.0
20191112211655 42 266 4.0 7.0 0.00 0.29 0.29 100 1002.0
20191112210654 42 278 4.0 8.0 0.00 0.29 0.29 100 1002.0
20191112205654 42 283 2.0 5.0 0.06 0.29 0.29 100 1002.0
20191112204654 41 261 2.0 6.0 0.06 0.29 0.29 100 1002.0
20191112203654 41 274 3.0 6.0 0.06 0.29 0.29 100 1002.0
20191112202655 41 251 3.0 5.0 0.06 0.29 0.29 100 1002.0
20191112201655 41 270 3.0 6.0 0.06 0.29 0.29 100 1002.0
20191112200654 41 250 3.0 7.0 0.06 0.29 0.29 100 1002.0
20191112195655 41 269 2.0 6.0 0.00 0.23 0.23 100 1001.0
20191112194656 41 274 3.0 6.0 0.00 0.23 0.23 100 1001.0
20191112193654 41 273 3.0 5.0 0.00 0.23 0.23 100 1001.0
20191112192654 41 281 3.0 5.0 0.00 0.23 0.23 100 1002.0
20191112191655 41 292 2.0 5.0 0.04 0.23 0.23 100 1002.0
20191112190655 41 292 2.0 5.0 0.04 0.23 0.23 100 1001.0
20191112185654 41 315 3.0 5.0 0.04 0.23 0.23 100 1002.0
20191112184655 41 292 2.0 3.0 0.04 0.23 0.23 100 1002.0
20191112183654 41 350 2.0 3.0 0.04 0.23 0.23 100 1002.0
20191112182655 41 292 2.0 3.0 0.09 0.23 0.23 100 1003.0
20191112181655 41 292 2.0 5.0 0.05 0.19 0.19 100 1003.0
20191112180655 41 292 3.0 6.0 0.05 0.19 0.19 100 1003.0
20191112175655 41 297 2.0 6.0 0.05 0.19 0.19 100 1003.0
20191112174655 41 292 2.0 3.0 0.05 0.19 0.19 100 1003.0
20191112173655 41 287 3.0 5.0 0.05 0.19 0.19 100 1003.0
20191112172655 41 307 3.0 6.0 0.00 0.14 0.14 100 1003.0
20191112171655 41 300 3.0 6.0 0.00 0.14 0.14 100 1003.0
20191112170655 41 297 3.0 6.0 0.04 0.14 0.14 100 1003.0
20191112165655 41 292 3.0 6.0 0.04 0.14 0.14 99 1004.0
20191112164655 41 292 2.0 3.0 0.09 0.14 0.14 97 1004.0
20191112163655 42 292 2.0 3.0 0.09 0.14 0.14 97 1004.0
20191112162655 42 292 2.0 3.0 0.09 0.14 0.14 97 1004.0
20191112161655 42 270 3.0 5.0 0.14 0.14 0.14 97 1004.0
20191112160655 42 292 3.0 5.0 0.10 0.10 0.10 97 1004.0
20191112155655 42 292 2.0 5.0 0.10 0.10 0.10 97 1004.0
20191112154656 42 292 3.0 5.0 0.06 0.06 0.06 97 1004.0
20191112153656 42 305 3.0 5.0 0.06 0.06 0.06 97 1003.0
20191112152656 42 306 3.0 6.0 0.06 0.06 0.06 97 1004.0
20191112151656 42 286 3.0 6.0 0.00 0.00 0.00 96 1004.0
20191112150655 42 310 3.0 5.0 0.00 0.00 0.00 94 1004.0
20191112145656 43 292 2.0 5.0 0.00 0.00 0.00 94 1004.0
20191112144656 43 274 2.0 5.0 0.00 0.00 0.00 93 1004.0
20191112143655 43 315 2.0 6.0 0.00 0.00 0.00 93 1004.0
20191112142656 43 280 3.0 5.0 0.00 0.00 0.00 93 1004.0
20191112141656 43 315 2.0 3.0 0.00 0.00 0.00 90 1004.0
20191112140655 44 303 2.0 3.0 0.00 0.00 0.00 88 1005.0
20191112135656 44 16 1.0 2.0 0.00 0.00 0.00 87 1005.0
20191112134656 44 292 1.0 3.0 0.00 0.00 0.00 87 1005.0
20191112133655 44 292 2.0 5.0 0.00 0.00 0.00 87 1005.0
20191112132656 44 270 2.0 3.0 0.00 0.00 0.00 86 1004.0
20191112131655 44 315 1.0 2.0 0.00 0.00 0.00 84 1004.0
20191112130656 44 331 1.0 3.0 0.00 0.00 0.00 83 1005.0
20191112125656 44 315 2.0 3.0 0.00 0.00 0.00 84 1005.0
20191112124656 44 292 3.0 6.0 0.00 0.00 0.00 84 1005.0
20191112123655 44 292 2.0 5.0 0.00 0.00 0.00 83 1005.0
20191112122655 44 283 1.0 5.0 0.00 0.00 0.00 83 1005.0
20191112121656 44 287 2.0 3.0 0.00 0.00 0.00 83 1005.0
20191112120656 44 270 1.0 3.0 0.00 0.00 0.00 83 1005.0
20191112115656 44 270 2.0 3.0 0.00 0.00 0.00 83 1006.0
20191112114656 44 300 1.0 3.0 0.00 0.00 0.00 83 1006.0
20191112113656 44 272 1.0 5.0 0.00 0.00 0.00 83 1006.0
20191112112656 44 294 5.0 6.0 0.00 0.00 0.00 82 1007.0
20191112111656 44 281 3.0 6.0 0.00 0.00 0.00 82 1007.0
20191112110656 44 248 2.0 5.0 0.00 0.00 0.00 82 1007.0
20191112105656 44 250 2.0 3.0 0.00 0.00 0.00 83 1007.0
20191112104656 44 284 3.0 6.0 0.00 0.00 0.00 83 1007.0
20191112103655 44 301 3.0 6.0 0.00 0.00 0.00 83 1007.0
20191112102656 43 263 3.0 6.0 0.00 0.00 0.00 84 1007.0
20191112101656 43 291 3.0 6.0 0.00 0.00 0.00 84 1007.0
20191112100656 43 269 3.0 7.0 0.00 0.00 0.00 84 1007.0
20191112095656 43 279 3.0 6.0 0.00 0.00 0.00 85 1006.0
20191112094656 43 269 2.0 5.0 0.00 0.00 0.00 85 1006.0
20191112093655 43 292 2.0 5.0 0.00 0.00 0.00 85 1007.0
20191112092656 43 289 3.0 7.0 0.00 0.00 0.00 85 1007.0
20191112091656 43 285 4.0 6.0 0.00 0.00 0.00 86 1007.0
20191112090656 43 275 5.0 7.0 0.00 0.00 0.00 86 1008.0
20191112085656 43 253 5.0 6.0 0.00 0.00 0.00 86 1008.0
20191112084656 43 237 3.0 5.0 0.00 0.00 0.00 85 1008.0
20191112083656 44 263 3.0 6.0 0.00 0.00 0.00 85 1008.0
20191112082656 44 243 3.0 6.0 0.00 0.00 0.00 84 1007.0
20191112081656 44 270 2.0 5.0 0.00 0.00 0.00 84 1007.0
20191112080656 45 286 2.0 5.0 0.00 0.00 0.00 84 1008.0
20191112075656 45 249 3.0 6.0 0.00 0.00 0.00 84 1007.0
20191112074657 46 235 2.0 6.0 0.00 0.00 0.00 83 1007.0
20191112073656 46 258 5.0 6.0 0.00 0.00 0.00 83 1008.0
20191112072656 46 234 3.0 5.0 0.00 0.00 0.00 83 1007.0
20191112071656 46 231 3.0 5.0 0.00 0.00 0.00 82 1007.0
20191112070656 46 248 2.0 3.0 0.00 0.00 0.00 82 1008.0
20191112065656 47 225 1.0 3.0 0.00 0.00 0.00 83 1007.0
20191112064656 47 142 2.0 6.0 0.00 0.00 0.00 83 1007.0
20191112063656 47 153 3.0 7.0 0.00 0.00 0.00 83 1008.0